Location: Monrovia
(34.7865°N, 86.7139°W)
Time: 21:41:54
(UTC+00:00)

Meteor 1-27 - Pass Details

Date: 14 July 2020
Orbit: 838 x 892 km, 81.3° (Epoch: 08 August)

Event Time Altitude Azimuth Distance (km) Brightness Sun altitude
Rises 02:14:12 0° 357° (N) 3,477 8.1 -13.4°
Reaches altitude 10° 02:16:42 10° 2° (N) 2,542 7.2 -13.8°
Maximum altitude 02:22:22 54° 79° (E) 1,069 4.5 -14.7°
Enters shadow 02:26:10 21° 149° (SSE) 1,888 5.4 -15.3°
